CZ-6A DEB, 56649

Orbit data source: Space-Track

CZ-6A DEB, 56649 is space debris in SSO originally from a launch on Fri, 11 Nov 2022 UTC launched from the Taiyaun Space Center, China (TSC). Debris objects in space refer to the collection of defunct objects orbiting the Earth. Examples of debris include non-operational satellites, rocket bodies, and fragments generated from explosions, collisions, or faulty payload assembly.

Loading next visibility...
Identifier
56649, 2022-151AFZ
Orbit
SSO
Country
Flag of CNCN / PRC
Related business
Manufacturer
SAST
Mission
Spacecraft
Bus & Motor
Unknown
Mass
Unknown
Launch date (UTC)
2022-11-11 (4 years ago)
Launch vehicle
Unknown
Launch site
Taiyaun Space Center, China (TSC)
Object type
Payload
Rocket body
Debris
Shape & HBR
Unknown shape, 0.1 m
Radar Cross Section
Small (<0.1 m²)

Expand to show TLE details & history
Last TLE update: 1 week ago

TLE from 1 week ago
0 CZ-6A DEB
1 56649U 22151AFZ 26165.97901873  .00001539  00000-0  77459-3 0  9998
2 56649  98.8305 175.6091 0038122 328.3813  31.5072 14.17539668170543
Epoch: 2026-06-14T23:29Z
TLE epoch observation values (Epoch: 2026-06-14T23:29:47.218Z)
Latitude
0.00002°
Longitude
-80.10964°
Altitude
813.177 km
Speed
7.459 km/s
True Right ascension
11h 42m 26s
True Declination
0° 00' 00"
Sunlit
Object was in daylight at epoch
Visualization orbit readout
Latitude
Unknown
Longitude
Unknown
Altitude
Unknown
Speed
Unknown
Apparent Right ascension
Unknown
Apparent Declination
Unknown
Sunlit
N/A
Visualization observer readout
Local Sidereal Time
21:41:57
Azimuth
Unknown
Elevation
Unknown
Doppler factor
Unknown
Orbital elements
Apogee altitude
858.335 km
Perigee altitude
803.371 km
Semi-major axis
7,208.99 km
Eccentricity
0.00381
Inclination
98.8305°
RAAN
175.6091°
Arg. of periapsis
328.3813°
True anomaly
31.73643°
Mean anomaly
31.5072°
Eccentric anomaly
31.62172°
Mean motion
3.54594 °/min
Orbital period
101.52 mins
BSTAR
0.00077459
Loading maneuver chart data...
Computing Atmospheric mass density...
Loading historical data...
Loading historical data...
Loading historical data...
Loading historical data...
Loading historical data...
Loading historical data...
Loading historical data...

Documentation

Showing up to 5 results
|